SCP
1 0 0 0 0 0 0 0 0 0 0 0 0 0 0 0 0 0 0 0 0 0 0 0 0 0 0 0 0 0 0 0 0 0 0 0 0 0 0 0 0 0 0 0 0 0 0 0 0
1 0 0 0 0 0 0 0 0 0 0 0 0 0 0 0 0 0 0 0 0 0 0 0 0 0 0 0 0 0 0 0 0 0 0 0 0 0 0 0 0 0 0 0 0 0 0 0 0
0 0 0 0 0 0 0 0 0 0 0 0 0 0 0 0 0 0 0 0 0 0 0 0 0 0 0 0 0 0 0 0 0 0 0 0 0 0 0 1 0 0 0 0 0 0 0 0 0
0 0 0 0 0 0 0 0 0 0 0 0 0 0 0 0 0 0 0 0 0 0 0 0 0 0 0 0 0 0 0 0 0 0 0 0 0 0 1 0 0 0 0 0 0 0 0 0 0
0 0 0 0 0 0 0 0 0 0 0 0 0 0 0 0 0 0 0 0 0 0 0 0 0 0 0 0 0 0 0 0 0 0 0 0 0 0 0 0 0 0 0 0 0 0 0 0 0
0 0 0 0 0 0 0 0 0 0 0 0 0 0 0 0 0 0 0 0 0 0 0 0 0 0 0 0 0 0 0 0 0 0 0 0 0 0 0 0 0 0 0 0 0 0 0 0 0
0 0 0 0 0 0 0 0 0 0 0 0 0 0 0 0 1 1 1 1 0 0 0 0 0 0 0 0 0 0 0 0 0 0 0 0 0 0 0 0 0 0 0 0 0 0 0 0 0
0 0 0 0 0 0 0 0 0 0 0 0 0 0 0 0 1 1 1 1 0 0 0 0 0 0 0 0 0 0 0 0 0 0 0 0 0 0 0 0 0 0 0 0 0 1 0 0 1
0 0 0 0 0 0 0 0 0 0 0 0 0 0 0 1 1 1 1 1 1 0 0 1 0 0 0 0 0 0 0 0 0 0 0 0 0 0 0 0 0 0 0 0 0 1 1 1 1
0 0 0 0 0 0 0 0 0 0 0 0 0 0 1 1 2 2 1 1 1 1 0 1 1 0 0 0 0 0 0 0 0 0 0 0 0 0 0 0 0 0 0 0 0 0 0 0 0
0 0 0 0 0 0 0 0 0 0 0 0 0 0 1 2 2 2 2 2 1 1 1 0 1 0 0 0 0 0 0 0 0 0 0 0 0 0 0 0 0 0 0 0 0 0 0 0 0
0 0 0 0 0 0 0 0 0 0 0 0 0 0 1 3 3 3 3 2 1 1 1 0 1 1 0 0 0 0 0 0 0 0 0 0 0 0 0 0 0 0 0 0 0 0 0 0 0
0 0 0 0 0 0 0 0 0 0 0 0 0 0 1 3 3 3 3 3 2 1 1 0 0 0 0 0 0 0 0 0 0 0 0 0 0 0 0 0 0 0 0 0 0 0 0 0 0
0 0 0 0 0 0 0 0 0 0 0 0 0 0 1 2 3 3 4 3 2 1 1 0 0 0 0 0 0 0 0 0 0 0 0 0 0 0 0 0 0 0 0 0 0 0 0 0 0
0 0 0 0 0 0 0 0 0 0 0 0 0 0 1 2 2 3 4 3 2 1 1 0 0 0 0 0 0 0 0 0 0 0 0 0 0 0 0 0 0 0 0 0 0 0 0 0 0
0 0 0 0 0 0 0 0 0 0 0 0 0 0 1 1 2 3 3 3 2 1 1 0 0 0 0 0 0 0 0 0 0 0 0 0 0 0 0 0 0 0 0 0 0 0 0 0 0
0 0 0 0 0 0 0 0 0 0 0 0 0 0 1 1 2 2 2 2 2 1 1 0 0 0 0 0 0 0 0 0 0 0 0 0 0 0 0 0 0 0 0 0 0 0 0 0 0
0 0 0 0 0 0 0 0 0 0 0 0 0 0 0 1 1 2 2 2 2 1 1 1 0 0 0 0 0 0 0 0 0 0 0 0 0 0 0 0 0 0 0 0 0 0 0 0 0
0 0 0 0 0 0 0 0 0 0 0 0 0 0 0 0 1 1 2 2 2 1 1 1 1 1 1 0 0 0 0 0 0 0 0 0 0 0 0 0 0 0 0 0 0 0 0 0 0
0 0 0 0 0 0 0 0 0 0 0 0 0 0 0 0 0 1 1 2 1 1 1 1 1 1 1 0 0 0 0 0 0 0 0 0 0 0 0 0 0 0 0 0 0 0 0 0 0
0 0 0 0 0 0 0 0 0 0 0 0 0 0 0 0 0 1 1 1 1 1 1 1 1 1 1 1 1 0 0 0 0 0 0 0 0 0 0 0 0 0 0 0 0 0 0 0 0
0 0 0 0 0 0 0 0 0 0 0 0 0 0 0 0 0 1 1 1 1 1 1 1 1 1 1 1 1 1 0 0 0 0 0 0 0 0 0 0 0 0 0 0 0 0 0 0 0
0 0 0 0 0 0 0 0 0 0 0 0 0 0 0 0 0 1 1 1 0 0 0 1 1 1 2 1 1 1 0 0 0 0 0 0 0 0 0 0 0 0 0 0 0 0 0 0 0
0 0 0 0 0 0 0 0 0 0 0 0 0 0 0 0 0 1 1 1 0 0 0 0 0 1 1 1 1 1 1 0 0 0 0 0 0 0 0 0 0 0 0 0 0 0 0 0 0
0 0 0 0 0 0 0 0 0 0 0 0 0 0 0 1 1 1 1 0 0 0 0 0 0 0 1 1 1 1 1 1 0 0 0 0 0 0 0 0 0 0 0 0 0 0 0 0 0
0 0 0 0 0 0 0 0 0 0 0 0 0 0 0 1 1 1 1 0 0 0 0 0 0 0 0 1 1 1 1 1 0 0 0 0 0 0 0 0 0 0 0 0 0 0 0 0 0
0 0 0 0 0 0 0 0 0 0 0 0 0 0 0 0 1 0 0 0 0 0 0 0 0 0 0 0 1 1 1 1 1 0 0 0 0 0 0 0 0 0 0 0 0 0 0 0 0
0 0 0 0 0 0 0 0 0 0 0 0 0 0 0 0 1 0 0 0 0 0 0 0 0 0 0 0 0 1 1 1 1 1 0 0 0 0 0 0 0 0 0 0 0 0 0 0 0
0 0 0 0 0 0 0 0 0 0 0 0 0 0 0 0 0 0 0 0 0 0 0 0 0 0 0 0 0 1 1 1 1 1 1 0 0 0 0 0 0 0 0 0 0 0 0 0 0
0 0 0 0 0 0 0 0 0 0 0 0 0 0 0 0 0 1 1 0 0 0 0 0 0 0 0 0 0 0 1 1 1 1 1 0 0 0 0 0 0 0 0 0 0 0 0 0 0
Wind_Speed
3 4 3 4 6 5 2 2 1 1 2 2 3 5 6 3 2 1 1 1 2 1 1 2 4 5 5 6 6 6 7 7 7 7 7 8 8 8 8 7 7 8 8 8 8 8 8 8 7
2 3 4 5 5 3 1 1 1 1 2 2 4 4 5 3 2 2 0 0 2 2 1 2 4 6 6 5 6 6 7 7 7 7 7 7 8 7 7 7 7 8 8 8 8 8 8 8 8
2 3 4 4 3 2 1 0 1 2 3 2 3 4 3 1 1 1 1 2 2 2 2 2 5 6 6 6 5 6 7 7 7 7 7 7 7 7 7 7 7 7 7 8 8 8 8 8 8
3 4 5 5 2 0 1 1 1 2 3 4 3 3 2 2 1 2 2 3 3 3 2 2 5 6 6 6 5 6 6 6 6 6 7 7 7 7 7 7 7 7 7 7 7 7 8 8 8
4 4 5 3 1 1 1 0 1 2 2 3 3 3 1 3 2 4 4 3 4 3 2 2 5 6 6 6 6 6 6 6 6 6 6 6 6 7 7 7 7 7 7 7 7 7 8 8 8
4 4 4 2 1 2 1 1 2 3 3 2 3 3 1 2 3 3 3 3 3 3 2 2 4 5 5 5 6 5 5 5 5 6 6 6 6 6 7 7 7 7 7 7 7 7 7 8 8
4 4 3 2 1 1 1 1 2 3 2 1 3 3 0 0 1 3 3 3 3 3 3 3 3 3 4 5 5 5 5 5 5 6 6 5 5 6 6 6 7 7 7 7 7 7 7 7 8
4 4 2 1 2 1 1 2 1 2 2 2 3 4 3 2 2 4 4 4 4 3 3 3 3 3 3 3 4 4 5 5 6 5 6 5 6 6 6 6 6 6 7 7 8 8 8 8 8
3 5 2 3 3 1 1 2 2 2 4 2 2 2 2 5 6 6 4 4 3 2 2 2 2 3 2 2 3 4 5 5 5 5 6 6 4 4 4 5 6 6 7 7 8 8 9 9 9
4 3 2 2 3 3 1 1 1 2 3 2 2 3 5 6 6 6 4 3 2 1 0 1 1 1 2 2 3 2 3 3 4 3 3 3 3 3 4 5 6 7 7 7 8 9 9 7 4
3 3 1 1 2 3 2 1 1 4 1 3 4 5 6 6 5 5 4 3 3 2 1 1 1 1 1 1 2 2 2 2 3 3 3 2 2 2 3 2 3 4 5 4 5 6 4 4 4
2 0 1 1 2 2 2 1 1 2 4 3 5 7 7 7 6 6 5 4 2 2 2 1 1 1 1 1 1 1 1 1 1 2 2 2 2 2 2 2 2 2 2 3 3 3 4 4 4
2 0 1 1 2 2 3 1 1 2 1 3 5 6 7 7 5 4 3 3 3 2 2 1 1 1 1 1 1 1 1 1 1 1 2 2 2 2 2 2 2 2 2 2 2 2 3 3 4
2 2 1 2 1 1 2 1 1 3 2 5 5 5 5 6 5 3 2 3 3 3 3 2 2 2 2 1 1 1 1 1 1 1 2 2 2 2 2 2 2 2 2 2 2 2 2 2 2
2 3 3 2 0 1 3 2 2 3 4 4 4 4 4 4 4 4 4 4 4 3 3 3 3 2 2 1 1 1 1 1 1 1 2 2 2 2 2 2 2 2 2 2 2 2 2 2 3
3 3 2 3 0 1 3 4 4 2 5 4 4 4 4 4 4 4 4 3 3 3 3 2 2 3 2 2 1 1 1 2 1 1 2 2 2 2 2 2 1 1 2 2 2 2 2 2 3
3 0 2 4 1 1 3 4 4 2 4 4 4 4 4 4 4 4 4 4 4 4 4 3 2 3 3 2 1 2 2 2 1 2 2 2 2 2 2 2 1 2 2 2 2 2 2 2 2
3 2 2 3 2 2 2 5 5 3 5 5 4 4 4 5 6 4 4 4 3 3 4 3 2 3 3 2 2 2 2 2 2 1 2 2 2 3 3 2 2 2 2 2 2 2 2 2 1
3 2 4 5 3 2 5 6 7 4 4 5 5 5 6 7 4 3 3 4 3 3 3 3 3 2 3 2 1 1 1 1 1 1 1 2 2 2 2 2 2 2 2 2 2 2 2 2 1
2 2 4 5 2 3 3 5 5 4 6 7 7 7 7 5 2 3 3 4 4 4 4 4 4 3 3 2 2 1 1 1 1 1 1 1 1 1 2 2 2 1 2 2 2 2 1 1 2
3 4 5 4 2 1 1 5 3 3 3 4 4 5 6 7 7 5 4 5 4 5 5 5 4 4 3 3 2 2 2 2 1 1 1 1 1 1 1 1 1 1 1 1 1 1 2 1 1
4 5 5 3 0 3 0 4 6 4 3 4 5 5 6 6 6 5 5 5 5 6 5 5 5 4 4 4 3 3 2 1 1 1 0 0 1 1 1 1 1 1 1 1 1 1 1 2 1
5 1 2 1 2 1 1 2 8 2 4 6 6 6 6 6 6 6 6 6 5 4 4 4 4 4 3 4 4 4 2 2 1 1 1 0 0 0 1 1 1 1 1 1 1 1 1 1 1
3 5 4 4 3 2 3 3 7 3 5 5 5 5 5 5 5 5 5 4 4 3 3 3 4 3 3 4 3 4 4 3 2 1 1 1 0 1 1 1 1 1 1 2 2 2 2 1 1
4 5 3 4 3 5 2 2 8 6 5 5 5 5 4 4 4 5 5 5 5 4 4 4 4 4 4 4 4 4 4 4 4 3 2 2 1 1 2 2 2 2 2 2 2 2 2 2 2
3 6 6 4 4 4 2 5 7 4 4 2 1 2 2 3 4 5 6 6 6 6 5 5 5 4 4 4 4 3 3 2 2 3 2 3 2 3 3 3 3 3 3 2 2 2 2 2 2
4 3 4 5 2 2 4 5 7 2 3 3 3 3 1 2 3 4 4 4 5 6 6 6 6 4 4 4 3 3 3 3 3 3 2 2 2 2 2 3 3 3 2 2 2 2 2 2 2
4 6 4 4 3 3 4 3 4 4 4 3 2 0 1 1 1 2 2 3 4 5 5 5 5 5 5 4 4 3 3 4 3 2 3 3 3 2 2 2 2 2 2 2 2 2 2 2 2
2 3 4 3 4 4 3 6 4 4 3 2 2 2 2 2 3 2 2 2 2 3 3 4 4 4 3 3 3 3 3 3 3 3 3 3 3 2 2 2 2 2 2 2 2 3 3 3 2
4 5 6 4 3 3 3 7 4 2 1 1 2 2 1 2 2 1 1 2 2 2 2 3 3 3 3 3 3 3 3 2 2 3 4 3 3 3 3 2 2 2 2 2 2 3 3 4 4
Wind_Direction
109 88 77 57 54 52 38 325 329 21 48 34 55 79 93 88 102 137 309 121 135 133 141 125 117 109 104 99 96 93 92 88 86 87 88 89 88 88 86 83 82 81 78 72 67 66 67 68 69
105 83 55 58 78 71 330 314 44 38 121 112 61 67 74 63 57 95 13 134 130 134 113 111 117 113 107 101 99 98 96 90 87 84 83 85 85 85 86 83 82 79 76 74 69 65 66 64 64
102 64 76 69 88 140 176 230 106 60 73 79 72 54 75 80 90 147 213 150 113 104 93 104 117 114 108 104 100 102 99 92 88 85 82 80 79 79 80 81 81 79 75 72 69 68 66 64 63
82 51 57 68 76 272 201 188 134 103 64 49 93 71 53 32 147 166 141 125 106 90 80 101 113 109 105 105 102 102 101 97 93 90 85 80 77 76 74 77 77 77 76 74 70 67 63 62 60
63 73 64 53 18 325 311 249 113 98 82 66 93 103 42 0 80 116 124 117 111 92 71 80 104 104 101 100 99 96 97 96 95 92 87 80 76 74 72 75 76 76 74 72 68 66 62 59 58
60 67 82 86 2 341 349 18 93 87 90 87 100 111 45 24 96 120 115 106 110 101 75 67 89 96 99 96 95 93 94 94 92 89 83 79 76 74 70 71 71 72 69 65 62 66 66 63 61
98 90 112 133 113 351 16 71 96 99 86 104 126 113 83 10 143 128 113 97 87 86 76 56 54 65 79 88 88 86 87 87 83 81 77 73 73 71 71 69 68 65 64 62 61 63 64 65 65
115 101 96 131 146 271 11 69 73 105 111 93 112 134 186 203 133 104 90 77 71 68 66 59 51 50 49 44 61 77 77 78 75 73 72 66 61 59 57 56 56 58 60 61 60 60 63 62 65
88 82 139 192 172 185 67 74 42 67 95 66 77 144 163 133 118 102 82 68 67 69 49 57 62 52 45 38 44 51 58 58 57 51 52 49 40 39 42 48 53 53 55 59 59 61 60 59 58
86 116 205 204 170 158 93 84 119 83 75 63 58 68 102 121 129 129 127 133 139 147 101 70 80 65 45 43 45 36 41 40 39 40 41 41 40 36 38 41 52 51 51 57 60 62 56 55 44
111 153 189 153 158 137 102 57 82 127 174 200 179 155 135 134 140 148 156 162 177 178 158 154 144 85 70 51 47 39 41 37 32 37 44 49 46 37 37 37 40 38 49 48 49 50 44 46 47
98 104 157 171 137 121 130 115 81 176 221 193 165 149 147 152 166 175 177 178 165 154 187 186 143 113 89 73 56 51 48 45 34 29 45 64 58 46 45 44 37 41 45 50 47 53 49 47 50
95 64 75 109 95 111 106 127 165 252 223 118 125 135 156 166 177 188 187 167 150 166 192 187 161 142 122 93 60 66 53 56 39 39 45 70 81 70 60 53 48 46 47 54 54 57 59 51 51
147 107 52 36 70 104 126 251 146 248 147 125 138 160 173 178 180 173 177 175 183 189 195 182 166 161 133 131 122 88 80 71 58 51 46 68 87 86 76 64 52 47 50 58 66 63 66 55 55
91 67 10 346 79 196 109 335 241 221 144 148 168 180 184 194 185 187 193 188 190 189 183 177 169 138 137 144 142 104 94 90 78 61 54 67 89 96 91 79 59 45 53 64 67 60 61 64 60
56 56 344 297 236 195 134 260 263 185 148 174 190 193 196 209 204 205 196 191 180 164 164 179 161 135 137 129 120 99 93 91 80 70 65 70 80 96 100 90 67 54 63 70 75 66 65 58 57
37 74 261 295 256 160 161 242 261 173 163 194 209 205 202 216 222 214 198 193 179 166 160 160 143 136 137 126 109 99 89 78 75 75 74 78 81 87 93 87 69 64 66 64 78 64 73 77 67
218 227 256 264 265 156 210 250 262 208 190 211 218 212 204 214 224 210 197 185 175 165 158 153 137 128 127 112 88 72 61 56 62 76 75 81 79 81 85 83 72 74 75 62 66 78 62 69 69
177 202 256 262 236 189 235 253 260 231 206 220 222 216 215 225 227 198 187 171 157 153 151 150 144 141 131 123 124 112 95 62 56 67 83 86 89 92 93 85 76 73 84 86 86 85 74 55 47
173 227 263 284 247 193 248 271 266 226 217 217 213 215 218 221 212 199 183 171 172 173 170 165 165 159 159 158 153 143 136 119 105 60 65 75 101 110 107 101 101 90 89 84 75 85 91 50 43
205 205 230 246 326 13 340 309 285 268 238 232 222 215 213 207 204 197 184 187 180 181 183 180 178 171 166 147 114 88 70 51 39 37 41 39 119 129 116 125 120 107 107 126 131 114 122 135 26
242 226 210 211 133 288 76 295 288 272 280 250 236 220 216 214 201 193 187 186 191 195 186 177 174 167 160 146 139 140 146 164 203 195 198 57 131 158 144 149 147 142 138 151 188 134 137 140 145
220 215 144 139 154 318 312 231 287 315 280 261 239 225 219 211 197 193 192 190 191 183 175 175 167 168 165 158 159 151 151 167 157 111 107 91 273 212 190 184 179 181 187 195 192 148 171 169 165
138 68 57 49 72 298 245 187 282 255 246 262 246 231 219 208 197 190 185 174 174 167 164 162 164 174 172 166 163 164 167 162 144 147 178 214 276 273 241 217 213 213 214 213 211 198 191 193 184
93 91 28 355 5 261 250 199 256 264 257 243 247 236 214 197 188 182 178 178 176 174 176 176 172 181 182 177 180 185 183 178 185 193 200 207 230 252 248 234 228 233 233 224 206 200 207 201 200
165 145 162 206 230 279 300 239 260 288 295 280 248 189 165 176 182 188 191 188 186 183 181 181 183 187 184 187 197 192 185 186 202 203 204 213 222 235 242 237 236 235 235 231 209 210 216 205 213
147 179 171 143 180 271 278 283 303 336 0 28 53 81 146 186 188 197 196 189 187 186 185 183 181 185 188 195 194 192 192 197 215 220 214 226 241 245 244 241 240 241 233 226 208 225 231 207 213
143 145 109 131 170 259 285 279 274 307 317 2 24 355 237 211 193 202 195 192 194 191 183 176 178 184 188 187 191 195 203 209 215 217 229 239 248 248 244 253 252 251 242 229 211 223 226 204 217
108 115 118 125 156 168 268 276 248 247 258 248 264 265 228 216 206 200 188 182 174 166 166 172 182 186 186 189 192 196 206 210 209 219 234 237 240 234 230 236 246 257 255 235 216 223 208 202 213
176 171 148 155 220 184 194 266 288 272 258 219 259 283 273 225 207 190 163 132 125 145 167 177 189 194 201 194 191 203 209 203 210 226 231 226 229 228 224 225 234 251 257 238 218 229 215 203 208